This is the latest recevied weather packets stored in our database for station/object PP5CI-13. If no packets are shown the sender has not sent any weather packets the latest 1 day(s).
| Time | Temp. | Humidity | Pressure | Rain* | Wind** | Luminosity | Snow |
|---|---|---|---|---|---|---|---|
| 1836274695 | 20° C | 96% | 1016.2 hPa | 0 mm | 0.45 m/s, 132° | - | - |
| 1836274396 | 20° C | 96% | 1016.2 hPa | 0 mm | 0.45 m/s, 123° | - | - |
| 1778028926 | 22.78° C | 98% | 1019.2 hPa | 0 mm | 0.89 m/s, 129° | - | - |
| 1778027727 | 22.78° C | 97% | 1019.2 hPa | 0 mm | 0 m/s | - | - |
| 1778027126 | 22.78° C | 97% | 1019.2 hPa | 0 mm | 0 m/s | - | - |
| 1778026522 | 22.78° C | 97% | 1019.2 hPa | 0 mm | 0.45 m/s, 143° | - | - |
| 1778025928 | 23.33° C | 96% | 1019.2 hPa | 0 mm | 0.89 m/s, 144° | - | - |
| 1778025335 | 23.33° C | 96% | 1019.2 hPa | 0 mm | 0.89 m/s, 126° | - | - |
| 1778024735 | 23.33° C | 96% | 1019.2 hPa | 0 mm | 0.89 m/s, 113° | - | - |
| 1778024126 | - | - | - | 0 mm | 1.34 m/s, 113° | - | - |
| 1778023526 | 23.89° C | 95% | 1018.2 hPa | 0 mm | 0.89 m/s, 125° | - | - |
| 1778022921 | 23.89° C | 94% | 1018.2 hPa | 0 mm | 0.89 m/s, 111° | - | - |
| 1778022328 | 23.89° C | 94% | 1018.2 hPa | 0 mm | 0 m/s | - | - |
| 1778021727 | 23.89° C | 95% | 1018.2 hPa | 0 mm | 0 m/s | - | - |
| 1778020527 | 23.89° C | 95% | 1018.2 hPa | 0 mm | 0.45 m/s, 239° | - | - |
| 1778019927 | 24.44° C | 94% | 1018.2 hPa | 0 mm | 0 m/s | - | - |
| 1778019322 | 24.44° C | 94% | 1018.2 hPa | 0 mm | 0.45 m/s, 262° | - | - |
| 1778018728 | 24.44° C | 94% | 1018.2 hPa | 0 mm | 0 m/s | - | - |
| 1778018126 | 24.44° C | 93% | 1018.2 hPa | 0 mm | 1.34 m/s, 265° | - | - |
| 1778017522 | 24.44° C | 93% | 1018.2 hPa | 0 mm | 1.34 m/s, 265° | - | - |
| 1778016927 | 24.44° C | 93% | 1017.2 hPa | 0 mm | 1.34 m/s, 270° | - | - |
| 1778016327 | 25° C | 93% | 1017.2 hPa | 0 mm | 0.89 m/s, 263° | - | - |
| 1778015721 | 25° C | 92% | 1017.2 hPa | 0 mm | 1.79 m/s, 267° | - | - |
| 1778015127 | 25° C | 92% | 1017.2 hPa | 0 mm | 1.79 m/s, 275° | - | - |
| 1778014527 | 25° C | 91% | 1017.2 hPa | 0 mm | 1.34 m/s, 255° | - | - |
* Rain latest hour (hover to see other rain measurements)
** Current wind speed in m/s (hover to see current wind gust speed)